[Date Prev][Date Next][Thread Prev][Thread Next] - [Date Index][Thread Index][Author Index]
2 Line ISS Keps 4-30
- Subject: [sarex] 2 Line ISS Keps 4-30
- From: "Dave Larsen PhD" <doc@xxxxxxxxxxx>
- Date: Tue, 30 Apr 2002 05:20:51 -0700
ISS
1 25544U 98067A 02120.47399222 .00044870 00000-0 58018-3 0 3726
2 25544 51.6390 292.7490 0007374 18.3613 89.6390 15.58443605196587
----
Via the sarex mailing list at AMSAT.ORG courtesy of AMSAT-NA.
To unsubscribe, send "unsubscribe sarex" to Majordomo@amsat.org
AMSAT Home